Terug naar catalogus

COSMOS 2253

ActiefNavigatiePO
NORAD 22688·PAYLOAD·🇷🇺 Russia

Gelanceerd Jun 24, 1993 vanaf Plesetsk Cosmodrome

Loading…

Volgende Passages (komende 24 uur)

TLE

VersSource: Space-Track

Epoch: Sep 14, 2026, 14:01 UTC

1 22688U 93038B   26257.58428228  .00000025  00000-0  83605-4 0  9993
2 22688  82.5893 200.4327 0011796 159.9815 200.1741 12.61603412529774

Volg COSMOS 2253 in realtime met AllMySat

Download on the App Store